Terminal Aerodrome Forecast
Issued by NWS

Home | Current Version | Previous Version | Graphics & Text | Print | Product List | Glossary On
Versions: 1 2 3 4 5 6 7 8 9 10 11 12 13 14 15 16 17 18 19
000
FTUS43 KMPX 301124
TAFRWF
TAF
KRWF 301124Z 3012/0112 30012KT P6SM -RASN SCT004 OVC008
     FM301800 32010KT 3SM -RASN BR SCT004 OVC006
     FM302300 32008KT P6SM SCT008 OVC012=

USA.gov is the U.S. government's official web portal to all federal, state and local government web resources and services.